Terug naar catalogus

STARLINK-37175

ActiefCommunicatieSSO
NORAD 68401·PAYLOAD·🇺🇸 United States

Gelanceerd Mar 26, 2026 vanaf Vandenberg Space Force Base

Loading…

Volgende Passages (komende 24 uur)

TLE

VersSource: CelesTrak SupGP

Epoch: Sep 14, 2026, 23:07 UTC

1 68401C 26063X   26257.96368056 -.00031269  00000+0 -97023-3 0  2574
2 68401  97.2864  38.8649 0001198  94.2039  55.4705 15.33469359    16

Volg STARLINK-37175 in realtime met AllMySat

Download on the App Store